Find Starlink 36939

NORAD ID: 68034 Int'l Des: 2026-040 Owner: SPXS Country: US Constellation: starlink operational
LEOCIRCULARRETROGRADE

实时位置

正在加载3D地球...

关于 Starlink 36939

正在加载描述...

即将过境

Passes for default location (London). Set your location on the main map for personalized predictions.

高度历史

Loading altitude history...

两行轨道根数

1 68034U 26040W 26106.91668981 -.00019940 00000-0 -60060-3 0 9996
2 68034 97.2862 56.4836 0001351 91.2296 228.6426 15.34296071 6024
Epoch: Apr 16, 2026 • Age: 5 hours

当前状态

高度 465.2 km
速度 7.63 km/s
星下点 10.97°N, 166.23°E
发射日期 Mar 1, 2026
运行时间 0.1 years
类型 internet

技术详情

分类 Payload
质量 575.00 kg
干质量 530.00 kg
总质量 575.00 kg
长度 0.30 m
直径 4.10 m
跨度 29.00 m
形状 Box + pan
制造商 SPXS
平台类型 Starlink V2MO
阶段状态 In Orbit
所有者/国家 SPXS/US

Most Searched